Regional Weather Roundup
Issued by NWS Bismarck, ND

Home | Current Version | Previous Version | Text Only | Print | Product List | Glossary On
Versions: 1 2 3 4 5 6 7 8 9 10 11 12 13 14 15 16 17 18 19 20 21 22 23 24 25 26 27 28 29 30 31 32 33 34 35 36 37 38 39 40 41 42 43 44 45 46 47 48 49 50
000
ASUS43 KBIS 010810
RWRBIS

NWR BROADCAST TEXT
NATIONAL WEATHER SERVICE BISMARCK ND
300 AM CDT FRI AUG 01 2014

NOTE: "FAIR" INDICATES FEW OR NO CLOUDS BELOW 12,000 FEET WITH NO
SIGNIFICANT WEATHER AND/OR OBSTRUCTIONS TO VISIBILITY.


CITY           SKY/WX    TMP DP  RH WIND       PRES   REMARKS
WILLISTON      CLEAR     66  58  75 CALM      30.04F
MINOT          CLEAR     60  56  86 SW5       30.06R
MINOT AFB      CLEAR     56  56  99 NW3       30.06R
BISMARCK       MOCLDY    62  57  83 NE8       30.06S
DICKINSON      CLEAR     58  54  86 E8        30.05S
GARRISON         N/A     59  55  87 CALM      30.06S
HETTINGER ARPT CLEAR     59  53  80 E8        30.07S
JAMESTOWN      CLEAR     62  58  86 CALM      30.05F
CROSBY           N/A     57  57 100 S5        30.07S
HARVEY         FAIR      55  55 100 CALM      30.06S
HAZEN          FAIR      55  54  94 CALM      30.07R
LINTON         FAIR      63  59  88 SE7       30.06S
MANDAN         CLOUDY    63  57  82 E5        30.07S
RUGBY          FAIR      59  59 100 E7        30.06S
STANLEY        FAIR      61  59  94 E3        30.08S
TIOGA          FAIR      54  54 100 E6        30.11S
WATFORD CITY   FAIR      59  57  94 SW3       30.04R
$$

CITY           SKY/WX    TMP DP  RH WIND       PRES   REMARKS
GRAND FORKS    PTCLDY    60  59  96 CALM      30.02R
GRAND FORKS AF PTCLDY    62  62 100 W5        30.03S
DEVILS LAKE    CLEAR     64  59  82 CALM      30.05R
FARGO          CLEAR     62  59  90 CALM      30.01S
CANDO          FAIR      59  57  94 NE6       30.07S
CAVALIER       FAIR      59  57  94 W3        30.04R
GRAFTON        FAIR      61  61 100 NW7       30.03R
GWINNER          N/A    N/A N/A N/A W7        30.05S
LANGDON        FAIR      54  50  87 CALM      30.07S
ROLLA          FAIR      54  54 100 NW5       30.10R
WALHALLA         N/A     55  55 100 CALM        N/A
$$

CITY           SKY/WX    TMP DP  RH WIND       PRES   REMARKS
ABERDEEN       CLEAR     54  53  97 CALM      30.06R
MOBRIDGE       PTCLDY    63  58  83 SE5       30.04R
BUFFALO          N/A     65  47  52 W6        30.01S
RAPID CITY     CLEAR     58  51  78 CALM      30.11S
GLASGOW        MOCLDY    71  55  56 NE10      29.99F
SIDNEY         MOCLDY    64  55  72 N6        30.03S
WOLF POINT     MOCLDY    69  57  65 E6        30.00S
GLENDIVE       MOCLDY    70  48  46 E6        30.04R
MILES CITY     PTCLDY    69  44  40 SE8       30.01F
BAKER          PTCLDY    61  49  64 CALM      30.07R
$$

CITY           SKY/WX    TMP DP  RH WIND       PRES   REMARKS
BILLINGS       PTCLDY    73  41  31 SW7       30.11S
GREAT FALLS    CLEAR     58  45  62 W6        30.12S
REGINA         MOCLDY    64  59  82 E3        30.09R
ESTEVAN        PTCLDY    59  57  94 E6        30.08S
$$



USA.gov is the U.S. government's official web portal to all federal, state and local government web resources and services.